Weather History for Montague, CA

Change the Weather History Date:

Monday, February 18, 2013

  Actual Average Record
Temperature  
Mean Temperature 34 °F 40 °F  
Max Temperature 49 °F 52 °F 65 °F (1995)
Min Temperature 19 °F 28 °F 10 °F (1990)
Degree Days  
Heating Degree Days 31 25  
Month to date heating degree days 490 485  
Since 1 July heating degree days 3454 3637  
Cooling Degree Days 0 0  
Month to date cooling degree days 0 0  
Year to date cooling degree days 0 0  
Moisture  
Dew Point 21 °F    
Average Humidity 63    
Maximum Humidity 85    
Minimum Humidity 31    
Precipitation  
Precipitation T in 0.08 in 0.82 in (1980)
Month to date precipitation 0.22 1.22  
Year to date precipitation 0.93 3.42  
Sea Level Pressure  
Sea Level Pressure 29.99 in    
Wind  
Wind Speed 4 mph (ENE)    
Max Wind Speed 26 mph    
Max Gust Speed 30 mph    
Visibility 10 miles    
Events      
T = Trace of Precipitation, MM = Missing Value Source: NWS Daily Summary

Daily Weather History Graph

Daily Weather History Graph

Search for Another Location

Airport:

Trip Planner

Search our weather history database for the weather conditions in past years. The results will help you decide how hot, cold, wet, or windy it might be!

Date:

Astronomy

Feb. 18, 2013 Rise Set
Actual Time 7:00 AM PST 5:47 PM PST
Civil Twilight 6:32 AM PST 6:15 PM PST
Nautical Twilight 5:59 AM PST 6:48 PM PST
Astronomical Twilight 5:27 AM PST 7:20 PM PST
Moon 11:34 AM PST (2/18) 1:47 AM PST (2/18)
Length of Visible Light 11h 43m
Length of Day
10h 46m
First Quarter, 59% of the Moon is Illuminated
Feb 18
First Quarter
Feb 25
Full
Mar 4
Last Quarter
Mar 11
New
Mar 19
First Quarter

Hourly Weather History & Observations

Time (PST) Temp. Windchill Dew Point Humidity Pressure Visibility Wind Dir Wind Speed Gust Speed Precip Events Conditions
12:53 AM 26.1 °F - 17.1 °F 69% 30.08 in 10.0 mi Calm Calm - N/A   Clear
1:53 AM 26.1 °F - 17.1 °F 69% 30.06 in 10.0 mi Calm Calm - N/A   Clear
2:53 AM 23.0 °F - 16.0 °F 74% 30.04 in 10.0 mi Calm Calm - N/A   Clear
3:53 AM 21.0 °F - 15.1 °F 78% 30.04 in 10.0 mi Calm Calm - N/A   Clear
4:53 AM 21.9 °F 15.7 °F 17.1 °F 82% 30.05 in 10.0 mi South 4.6 mph - N/A   Clear
5:53 AM 21.9 °F - 16.0 °F 78% 30.07 in 10.0 mi Calm Calm - N/A   Clear
6:53 AM 21.0 °F 13.4 °F 16.0 °F 81% 30.06 in 10.0 mi SW 5.8 mph - N/A   Clear
7:53 AM 28.0 °F 22.8 °F 21.0 °F 75% 30.05 in 10.0 mi NE 4.6 mph - N/A   Partly Cloudy
8:53 AM 33.1 °F 25.5 °F 23.0 °F 66% 30.04 in 10.0 mi NNE 9.2 mph - N/A   Partly Cloudy
9:53 AM 37.9 °F 30.9 °F 21.0 °F 51% 30.04 in 10.0 mi North 10.4 mph - N/A   Clear
10:53 AM 42.1 °F 36.6 °F 19.0 °F 40% 30.01 in 10.0 mi NNE 9.2 mph - N/A   Scattered Clouds
11:53 AM 46.0 °F - 21.0 °F 37% 29.99 in 10.0 mi Calm Calm - N/A   Scattered Clouds
12:53 PM 46.9 °F - 19.9 °F 34% 29.96 in 10.0 mi Calm Calm - N/A   Mostly Cloudy
1:53 PM 48.0 °F - 23.0 °F 37% 29.94 in 10.0 mi Calm Calm - N/A   Partly Cloudy
2:53 PM 48.0 °F - 19.0 °F 32% 29.93 in 10.0 mi SE 3.5 mph - N/A   Overcast
3:53 PM 46.0 °F 39.9 °F 19.0 °F 34% 29.93 in 10.0 mi WNW 13.8 mph 18.4 mph N/A   Overcast
4:53 PM 42.1 °F 33.9 °F 27.0 °F 55% 29.94 in 10.0 mi West 17.3 mph 21.9 mph N/A   Overcast
5:53 PM 41.0 °F - 28.9 °F 62% 29.94 in 10.0 mi Calm Calm - 0.00 in   Overcast
6:53 PM 39.0 °F 33.4 °F 30.9 °F 73% 29.92 in 10.0 mi East 8.1 mph - N/A   Overcast
7:53 PM 36.0 °F - 30.0 °F 79% 29.91 in 10.0 mi Calm Calm - N/A   Mostly Cloudy
8:53 PM 30.9 °F 27.5 °F 26.1 °F 82% 29.90 in 10.0 mi ESE 3.5 mph - N/A   Mostly Cloudy
9:53 PM 27.0 °F - 23.0 °F 85% 29.89 in 10.0 mi Calm Calm - N/A   Clear
10:53 PM 28.0 °F - 24.1 °F 85% 29.87 in 10.0 mi Calm Calm - N/A   Clear